Wetterdaten: Donnerstag, 30.09.2010
Datum Zeit Temp. A. Feuchte A. Luftdruck Regen Wind Richtung Richtung Sonnenschein UV Solar Windben
30.09.2010 00:00 6,3 C 92 % 1019,1 hPa 0,0 mm 0,0 km/h (0 Bft) O-NO 77 0 min 0 UV-I 0 W/m 1,6 km/h (1 Bft)
30.09.2010 00:10 6,1 C 91 % 1019,1 hPa 0,0 mm 0,0 km/h (0 Bft) O-NO 77 0 min 0 UV-I 0 W/m 0,0 km/h (0 Bft)
30.09.2010 00:20 6,0 C 92 % 1019,1 hPa 0,0 mm 0,0 km/h (0 Bft) O-NO 77 0 min 0 UV-I 0 W/m 1,6 km/h (1 Bft)
30.09.2010 00:30 6,1 C 92 % 1019,1 hPa 0,0 mm 0,1 km/h (0 Bft) O 90 0 min 0 UV-I 0 W/m 3,2 km/h (1 Bft)
30.09.2010 00:40 6,1 C 92 % 1019,1 hPa 0,0 mm 0,0 km/h (0 Bft) O 90 0 min 0 UV-I 0 W/m 1,6 km/h (1 Bft)
30.09.2010 00:50 6,1 C 92 % 1019,0 hPa 0,0 mm 0,1 km/h (0 Bft) O 90 0 min 0 UV-I 0 W/m 1,6 km/h (1 Bft)
30.09.2010 01:00 6,0 C 92 % 1019,0 hPa 0,0 mm 0,1 km/h (0 Bft) O 90 0 min 0 UV-I 0 W/m 3,2 km/h (1 Bft)
30.09.2010 01:10 5,9 C 92 % 1018,9 hPa 0,0 mm 0,0 km/h (0 Bft) O 90 0 min 0 UV-I 0 W/m 1,6 km/h (1 Bft)
30.09.2010 01:20 5,9 C 92 % 1018,9 hPa 0,0 mm 0,2 km/h (0 Bft) O 90 0 min 0 UV-I 0 W/m 3,2 km/h (1 Bft)
30.09.2010 01:30 5,8 C 92 % 1018,9 hPa 0,0 mm 0,4 km/h (0 Bft) O 92 0 min 0 UV-I 0 W/m 3,2 km/h (1 Bft)
30.09.2010 01:40 5,8 C 92 % 1018,9 hPa 0,0 mm 0,0 km/h (0 Bft) O 90 0 min 0 UV-I 0 W/m 3,2 km/h (1 Bft)
30.09.2010 01:50 5,8 C 92 % 1018,7 hPa 0,0 mm 0,0 km/h (0 Bft) O 90 0 min 0 UV-I 0 W/m 3,2 km/h (1 Bft)
30.09.2010 02:00 5,9 C 92 % 1018,7 hPa 0,0 mm 0,0 km/h (0 Bft) O 90 0 min 0 UV-I 0 W/m 3,2 km/h (1 Bft)
30.09.2010 02:10 5,9 C 92 % 1018,6 hPa 0,0 mm 0,0 km/h (0 Bft) O 90 0 min 0 UV-I 0 W/m 1,6 km/h (1 Bft)
30.09.2010 02:20 5,9 C 92 % 1018,5 hPa 0,0 mm 0,0 km/h (0 Bft) O 90 0 min 0 UV-I 0 W/m 1,6 km/h (1 Bft)
30.09.2010 02:30 5,9 C 92 % 1018,7 hPa 0,0 mm 0,0 km/h (0 Bft) N 0 0 min 0 UV-I 0 W/m 0,0 km/h (0 Bft)
30.09.2010 02:40 5,8 C 92 % 1018,5 hPa 0,0 mm 0,0 km/h (0 Bft) O 90 0 min 0 UV-I 0 W/m 1,6 km/h (1 Bft)
30.09.2010 02:50 5,8 C 92 % 1018,5 hPa 0,0 mm 0,0 km/h (0 Bft) N 0 0 min 0 UV-I 0 W/m 0,0 km/h (0 Bft)
30.09.2010 03:00 5,7 C 92 % 1018,4 hPa 0,0 mm 0,0 km/h (0 Bft) N 0 0 min 0 UV-I 0 W/m 0,0 km/h (0 Bft)
30.09.2010 03:10 5,6 C 92 % 1018,4 hPa 0,0 mm 0,0 km/h (0 Bft) O 90 0 min 0 UV-I 0 W/m 1,6 km/h (1 Bft)
30.09.2010 03:20 5,4 C 91 % 1018,3 hPa 0,0 mm 0,0 km/h (0 Bft) O 90 0 min 0 UV-I 0 W/m 3,2 km/h (1 Bft)
30.09.2010 03:30 5,3 C 92 % 1018,2 hPa 0,0 mm 0,0 km/h (0 Bft) O 90 0 min 0 UV-I 0 W/m 3,2 km/h (1 Bft)
30.09.2010 03:40 5,2 C 92 % 1018,0 hPa 0,0 mm 0,0 km/h (0 Bft) O 90 0 min 0 UV-I 0 W/m 3,2 km/h (1 Bft)
30.09.2010 03:50 5,2 C 92 % 1017,9 hPa 0,0 mm 0,0 km/h (0 Bft) O 90 0 min 0 UV-I 0 W/m 4,8 km/h (1 Bft)
30.09.2010 04:00 5,2 C 92 % 1017,8 hPa 0,0 mm 0,0 km/h (0 Bft) O 90 0 min 0 UV-I 0 W/m 3,2 km/h (1 Bft)
30.09.2010 04:10 5,2 C 92 % 1017,7 hPa 0,0 mm 0,0 km/h (0 Bft) O 90 0 min 0 UV-I 0 W/m 4,8 km/h (1 Bft)
30.09.2010 04:20 5,2 C 92 % 1017,6 hPa 0,0 mm 0,0 km/h (0 Bft) O-SO 112 0 min 0 UV-I 0 W/m 3,2 km/h (1 Bft)
30.09.2010 04:30 5,2 C 92 % 1017,5 hPa 0,0 mm 1,6 km/h (1 Bft) O-SO 112 0 min 0 UV-I 0 W/m 6,4 km/h (2 Bft)
30.09.2010 04:40 5,3 C 92 % 1017,5 hPa 0,0 mm 1,6 km/h (1 Bft) O 90 0 min 0 UV-I 0 W/m 6,4 km/h (2 Bft)
30.09.2010 04:50 5,3 C 92 % 1017,4 hPa 0,0 mm 1,6 km/h (1 Bft) O 90 0 min 0 UV-I 0 W/m 11,3 km/h (2 Bft)
30.09.2010 05:00 5,4 C 92 % 1017,4 hPa 0,0 mm 3,2 km/h (1 Bft) O-SO 112 0 min 0 UV-I 0 W/m 8,0 km/h (2 Bft)
30.09.2010 05:10 5,6 C 92 % 1017,4 hPa 0,0 mm 3,2 km/h (1 Bft) O-SO 112 0 min 0 UV-I 0 W/m 9,7 km/h (2 Bft)
30.09.2010 05:20 5,7 C 92 % 1017,4 hPa 0,0 mm 1,6 km/h (1 Bft) O-SO 112 0 min 0 UV-I 0 W/m 6,4 km/h (2 Bft)
30.09.2010 05:30 5,7 C 92 % 1017,3 hPa 0,0 mm 3,2 km/h (1 Bft) O 90 0 min 0 UV-I 0 W/m 6,4 km/h (2 Bft)
30.09.2010 05:40 5,7 C 92 % 1017,3 hPa 0,0 mm 1,6 km/h (1 Bft) O-SO 112 0 min 0 UV-I 0 W/m 8,0 km/h (2 Bft)
30.09.2010 05:50 5,7 C 92 % 1017,2 hPa 0,0 mm 3,2 km/h (1 Bft) O-SO 112 0 min 0 UV-I 0 W/m 9,7 km/h (2 Bft)
30.09.2010 06:00 5,7 C 92 % 1017,3 hPa 0,0 mm 1,6 km/h (1 Bft) O-SO 112 0 min 0 UV-I 0 W/m 8,0 km/h (2 Bft)
30.09.2010 06:10 5,7 C 92 % 1017,2 hPa 0,0 mm 3,2 km/h (1 Bft) O-SO 112 0 min 0 UV-I 0 W/m 6,4 km/h (2 Bft)
30.09.2010 06:20 5,6 C 92 % 1017,2 hPa 0,0 mm 1,6 km/h (1 Bft) O 90 0 min 0 UV-I 0 W/m 6,4 km/h (2 Bft)
30.09.2010 06:30 5,6 C 92 % 1017,3 hPa 0,0 mm 1,6 km/h (1 Bft) O 90 0 min 0 UV-I 0 W/m 4,8 km/h (1 Bft)
30.09.2010 06:40 5,5 C 92 % 1017,3 hPa 0,0 mm 3,2 km/h (1 Bft) O-SO 112 0 min 0 UV-I 0 W/m 8,0 km/h (2 Bft)
30.09.2010 06:50 5,4 C 92 % 1017,2 hPa 0,0 mm 1,6 km/h (1 Bft) O-SO 112 0 min 0 UV-I 0 W/m 6,4 km/h (2 Bft)
30.09.2010 07:00 5,4 C 92 % 1017,1 hPa 0,0 mm 3,2 km/h (1 Bft) O-SO 112 0 min 0 UV-I 0 W/m 11,3 km/h (2 Bft)
30.09.2010 07:10 5,4 C 92 % 1017,1 hPa 0,0 mm 3,2 km/h (1 Bft) O-SO 112 0 min 0 UV-I 0 W/m 14,5 km/h (3 Bft)
30.09.2010 07:20 5,4 C 92 % 1017,1 hPa 0,0 mm 3,2 km/h (1 Bft) O-SO 112 0 min 0 UV-I 5 W/m 8,0 km/h (2 Bft)
30.09.2010 07:30 5,4 C 92 % 1017,1 hPa 0,0 mm 4,8 km/h (1 Bft) O 90 0 min 0 UV-I 11 W/m 9,7 km/h (2 Bft)
30.09.2010 07:40 5,5 C 92 % 1017,1 hPa 0,3 mm 3,2 km/h (1 Bft) O-SO 112 10 min 0 UV-I 21 W/m 9,7 km/h (2 Bft)
30.09.2010 07:50 5,6 C 92 % 1017,1 hPa 0,0 mm 3,2 km/h (1 Bft) O-SO 112 10 min 0 UV-I 40 W/m 9,7 km/h (2 Bft)
30.09.2010 08:00 5,8 C 93 % 1017,0 hPa 0,0 mm 4,8 km/h (1 Bft) O-SO 112 10 min 0 UV-I 58 W/m 11,3 km/h (2 Bft)
30.09.2010 08:10 6,0 C 93 % 1017,0 hPa 0,0 mm 3,2 km/h (1 Bft) O-SO 112 10 min 0 UV-I 76 W/m 14,5 km/h (3 Bft)
30.09.2010 08:20 6,3 C 93 % 1016,9 hPa 0,0 mm 6,4 km/h (2 Bft) O-SO 112 10 min 0 UV-I 107 W/m 17,7 km/h (3 Bft)
30.09.2010 08:30 6,6 C 93 % 1017,0 hPa 0,0 mm 4,8 km/h (1 Bft) O-SO 112 10 min 0 UV-I 135 W/m 16,1 km/h (3 Bft)
30.09.2010 08:40 6,9 C 93 % 1017,0 hPa 0,0 mm 4,8 km/h (1 Bft) O-SO 112 10 min 0 UV-I 148 W/m 14,5 km/h (3 Bft)
30.09.2010 08:50 7,2 C 93 % 1016,9 hPa 0,0 mm 3,2 km/h (1 Bft) O-SO 112 10 min 0 UV-I 141 W/m 12,9 km/h (3 Bft)
30.09.2010 09:00 7,3 C 93 % 1016,9 hPa 0,0 mm 4,8 km/h (1 Bft) O-SO 112 0 min 0 UV-I 104 W/m 16,1 km/h (3 Bft)
30.09.2010 09:10 7,5 C 93 % 1016,8 hPa 0,0 mm 3,2 km/h (1 Bft) O 90 0 min 1 UV-I 120 W/m 8,0 km/h (2 Bft)
30.09.2010 09:20 7,7 C 92 % 1016,8 hPa 0,0 mm 4,8 km/h (1 Bft) O-SO 112 0 min 1 UV-I 141 W/m 14,5 km/h (3 Bft)
30.09.2010 09:30 7,9 C 92 % 1016,6 hPa 0,0 mm 4,8 km/h (1 Bft) O-SO 112 10 min 1 UV-I 193 W/m 14,5 km/h (3 Bft)
30.09.2010 09:40 8,6 C 89 % 1016,6 hPa 0,0 mm 4,8 km/h (1 Bft) O 90 10 min 1 UV-I 197 W/m 14,5 km/h (3 Bft)
30.09.2010 09:50 9,0 C 87 % 1016,5 hPa 0,0 mm 4,8 km/h (1 Bft) O-SO 112 10 min 1 UV-I 200 W/m 16,1 km/h (3 Bft)
30.09.2010 10:00 9,4 C 85 % 1016,6 hPa 0,0 mm 4,8 km/h (1 Bft) O 90 10 min 1 UV-I 223 W/m 14,5 km/h (3 Bft)
30.09.2010 10:10 9,7 C 84 % 1016,5 hPa 0,0 mm 3,2 km/h (1 Bft) O 90 10 min 1 UV-I 260 W/m 16,1 km/h (3 Bft)
30.09.2010 10:20 10,0 C 83 % 1016,5 hPa 0,0 mm 4,8 km/h (1 Bft) O-SO 112 10 min 1 UV-I 285 W/m 14,5 km/h (3 Bft)
30.09.2010 10:30 10,2 C 82 % 1016,4 hPa 0,0 mm 4,8 km/h (1 Bft) O-SO 112 10 min 1 UV-I 276 W/m 11,3 km/h (2 Bft)
30.09.2010 10:40 10,3 C 81 % 1016,6 hPa 0,0 mm 6,4 km/h (2 Bft) O-SO 112 10 min 1 UV-I 271 W/m 14,5 km/h (3 Bft)
30.09.2010 10:50 10,4 C 81 % 1016,6 hPa 0,0 mm 4,8 km/h (1 Bft) O 90 10 min 2 UV-I 323 W/m 11,3 km/h (2 Bft)
30.09.2010 11:00 10,7 C 80 % 1016,6 hPa 0,0 mm 4,8 km/h (1 Bft) O 90 10 min 2 UV-I 411 W/m 17,7 km/h (3 Bft)
30.09.2010 11:10 11,2 C 79 % 1016,5 hPa 0,0 mm 4,8 km/h (1 Bft) O-SO 112 10 min 2 UV-I 406 W/m 11,3 km/h (2 Bft)
30.09.2010 11:20 11,6 C 78 % 1016,4 hPa 0,0 mm 4,8 km/h (1 Bft) O-SO 112 10 min 2 UV-I 408 W/m 14,5 km/h (3 Bft)
30.09.2010 11:30 11,6 C 79 % 1016,4 hPa 0,0 mm 6,4 km/h (2 Bft) O-SO 112 10 min 2 UV-I 339 W/m 17,7 km/h (3 Bft)
30.09.2010 11:40 11,6 C 79 % 1016,2 hPa 0,0 mm 4,8 km/h (1 Bft) O 90 10 min 2 UV-I 360 W/m 14,5 km/h (3 Bft)
30.09.2010 11:50 11,9 C 78 % 1016,1 hPa 0,0 mm 6,4 km/h (2 Bft) O 90 10 min 2 UV-I 450 W/m 16,1 km/h (3 Bft)
30.09.2010 12:00 12,3 C 77 % 1016,0 hPa 0,0 mm 8,0 km/h (2 Bft) O-SO 112 10 min 3 UV-I 504 W/m 19,3 km/h (3 Bft)
30.09.2010 12:10 12,5 C 76 % 1016,1 hPa 0,0 mm 6,4 km/h (2 Bft) SO 135 10 min 3 UV-I 527 W/m 20,9 km/h (4 Bft)
30.09.2010 12:20 12,6 C 77 % 1015,9 hPa 0,0 mm 8,0 km/h (2 Bft) O-SO 112 10 min 3 UV-I 450 W/m 22,5 km/h (4 Bft)
30.09.2010 12:30 12,7 C 77 % 1015,8 hPa 0,0 mm 4,8 km/h (1 Bft) O-SO 112 10 min 2 UV-I 394 W/m 20,9 km/h (4 Bft)
30.09.2010 12:40 12,7 C 78 % 1015,6 hPa 0,0 mm 4,8 km/h (1 Bft) O-SO 112 10 min 2 UV-I 420 W/m 16,1 km/h (3 Bft)
30.09.2010 12:50 13,2 C 76 % 1015,6 hPa 0,0 mm 4,8 km/h (1 Bft) O-SO 112 10 min 3 UV-I 512 W/m 16,1 km/h (3 Bft)
30.09.2010 13:00 13,4 C 75 % 1015,6 hPa 0,0 mm 4,8 km/h (1 Bft) S-SO 157 10 min 3 UV-I 452 W/m 14,5 km/h (3 Bft)
30.09.2010 13:10 13,7 C 75 % 1015,6 hPa 0,0 mm 4,8 km/h (1 Bft) O-SO 112 10 min 3 UV-I 483 W/m 16,1 km/h (3 Bft)
30.09.2010 13:20 14,0 C 75 % 1015,6 hPa 0,0 mm 3,2 km/h (1 Bft) O-SO 112 10 min 3 UV-I 475 W/m 14,5 km/h (3 Bft)
30.09.2010 13:30 14,1 C 75 % 1015,5 hPa 0,0 mm 4,8 km/h (1 Bft) O-SO 112 10 min 2 UV-I 380 W/m 19,3 km/h (3 Bft)
30.09.2010 13:40 13,8 C 76 % 1015,5 hPa 0,0 mm 4,8 km/h (1 Bft) O-SO 112 10 min 2 UV-I 332 W/m 17,7 km/h (3 Bft)
30.09.2010 13:50 13,7 C 76 % 1015,4 hPa 0,0 mm 3,2 km/h (1 Bft) O-SO 112 10 min 2 UV-I 346 W/m 16,1 km/h (3 Bft)
30.09.2010 14:00 13,8 C 75 % 1015,4 hPa 0,0 mm 3,2 km/h (1 Bft) SO 135 10 min 2 UV-I 360 W/m 12,9 km/h (3 Bft)
30.09.2010 14:10 13,9 C 75 % 1015,4 hPa 0,0 mm 4,8 km/h (1 Bft) O-SO 112 10 min 2 UV-I 364 W/m 14,5 km/h (3 Bft)
30.09.2010 14:20 13,8 C 76 % 1015,4 hPa 0,0 mm 3,2 km/h (1 Bft) SO 135 0 min 2 UV-I 290 W/m 14,5 km/h (3 Bft)
30.09.2010 14:30 13,7 C 76 % 1015,2 hPa 0,0 mm 4,8 km/h (1 Bft) O-SO 112 0 min 2 UV-I 269 W/m 16,1 km/h (3 Bft)
30.09.2010 14:40 13,5 C 76 % 1015,2 hPa 0,0 mm 4,8 km/h (1 Bft) O-SO 112 0 min 2 UV-I 216 W/m 12,9 km/h (3 Bft)
30.09.2010 14:50 13,3 C 77 % 1015,1 hPa 0,0 mm 3,2 km/h (1 Bft) O-SO 112 0 min 1 UV-I 132 W/m 14,5 km/h (3 Bft)
30.09.2010 15:00 13,2 C 78 % 1015,1 hPa 0,0 mm 4,8 km/h (1 Bft) O-SO 112 0 min 1 UV-I 95 W/m 12,9 km/h (3 Bft)
30.09.2010 15:10 13,1 C 78 % 1015,0 hPa 0,0 mm 4,8 km/h (1 Bft) SO 135 0 min 1 UV-I 90 W/m 11,3 km/h (2 Bft)
30.09.2010 15:20 13,0 C 78 % 1015,0 hPa 0,0 mm 4,8 km/h (1 Bft) SO 135 0 min 1 UV-I 132 W/m 14,5 km/h (3 Bft)
30.09.2010 15:30 13,0 C 78 % 1014,8 hPa 0,0 mm 3,2 km/h (1 Bft) O-SO 112 0 min 1 UV-I 105 W/m 17,7 km/h (3 Bft)
30.09.2010 15:40 12,9 C 78 % 1014,9 hPa 0,0 mm 6,4 km/h (2 Bft) SO 135 0 min 1 UV-I 111 W/m 20,9 km/h (4 Bft)
30.09.2010 15:50 12,8 C 78 % 1014,8 hPa 0,0 mm 4,8 km/h (1 Bft) SO 135 0 min 1 UV-I 130 W/m 14,5 km/h (3 Bft)
30.09.2010 16:00 12,9 C 78 % 1014,7 hPa 0,0 mm 4,8 km/h (1 Bft) O-SO 112 0 min 1 UV-I 132 W/m 14,5 km/h (3 Bft)
30.09.2010 16:10 12,9 C 78 % 1014,8 hPa 0,0 mm 4,8 km/h (1 Bft) O-SO 112 0 min 1 UV-I 113 W/m 16,1 km/h (3 Bft)
30.09.2010 16:20 12,8 C 78 % 1014,7 hPa 0,0 mm 4,8 km/h (1 Bft) O-SO 112 0 min 1 UV-I 70 W/m 16,1 km/h (3 Bft)
30.09.2010 16:30 12,7 C 79 % 1014,6 hPa 0,0 mm 3,2 km/h (1 Bft) O 90 0 min 1 UV-I 65 W/m 11,3 km/h (2 Bft)
30.09.2010 16:40 12,6 C 79 % 1014,6 hPa 0,0 mm 4,8 km/h (1 Bft) O-SO 112 0 min 1 UV-I 65 W/m 20,9 km/h (4 Bft)
30.09.2010 16:50 12,6 C 79 % 1014,5 hPa 0,0 mm 3,2 km/h (1 Bft) SO 135 0 min 0 UV-I 58 W/m 14,5 km/h (3 Bft)
30.09.2010 17:00 12,5 C 80 % 1014,5 hPa 0,0 mm 4,8 km/h (1 Bft) SO 135 0 min 0 UV-I 56 W/m 16,1 km/h (3 Bft)
30.09.2010 17:10 12,6 C 80 % 1014,5 hPa 0,0 mm 3,2 km/h (1 Bft) O-SO 112 0 min 0 UV-I 63 W/m 9,7 km/h (2 Bft)
30.09.2010 17:20 12,6 C 80 % 1014,5 hPa 0,0 mm 1,6 km/h (1 Bft) O 90 0 min 0 UV-I 60 W/m 11,3 km/h (2 Bft)
30.09.2010 17:30 12,6 C 80 % 1014,4 hPa 0,0 mm 4,8 km/h (1 Bft) O-SO 112 0 min 0 UV-I 54 W/m 17,7 km/h (3 Bft)
30.09.2010 17:40 12,5 C 80 % 1014,4 hPa 0,0 mm 3,2 km/h (1 Bft) O-SO 112 0 min 0 UV-I 54 W/m 11,3 km/h (2 Bft)
30.09.2010 17:50 12,4 C 80 % 1014,3 hPa 0,0 mm 3,2 km/h (1 Bft) O-SO 112 0 min 0 UV-I 42 W/m 11,3 km/h (2 Bft)
30.09.2010 18:00 12,4 C 80 % 1014,4 hPa 0,0 mm 4,8 km/h (1 Bft) SO 135 0 min 0 UV-I 40 W/m 11,3 km/h (2 Bft)
30.09.2010 18:10 12,3 C 81 % 1014,3 hPa 0,0 mm 3,2 km/h (1 Bft) O-SO 112 0 min 0 UV-I 30 W/m 11,3 km/h (2 Bft)
30.09.2010 18:20 12,3 C 81 % 1014,3 hPa 0,0 mm 3,2 km/h (1 Bft) O-SO 112 0 min 0 UV-I 23 W/m 11,3 km/h (2 Bft)
30.09.2010 18:30 12,2 C 81 % 1014,2 hPa 0,0 mm 3,2 km/h (1 Bft) O-SO 112 0 min 0 UV-I 18 W/m 9,7 km/h (2 Bft)
30.09.2010 18:40 12,1 C 82 % 1014,3 hPa 0,0 mm 3,2 km/h (1 Bft) O-SO 112 0 min 0 UV-I 14 W/m 14,5 km/h (3 Bft)
30.09.2010 18:50 12,1 C 81 % 1014,3 hPa 0,0 mm 3,2 km/h (1 Bft) SO 135 0 min 0 UV-I 7 W/m 11,3 km/h (2 Bft)
30.09.2010 19:00 12,1 C 82 % 1014,4 hPa 0,0 mm 3,2 km/h (1 Bft) O-SO 112 0 min 0 UV-I 0 W/m 14,5 km/h (3 Bft)
30.09.2010 19:10 12,0 C 82 % 1014,3 hPa 0,0 mm 1,6 km/h (1 Bft) O-SO 112 0 min 0 UV-I 0 W/m 9,7 km/h (2 Bft)
30.09.2010 19:20 11,9 C 82 % 1014,3 hPa 0,0 mm 3,2 km/h (1 Bft) SO 135 0 min 0 UV-I 0 W/m 14,5 km/h (3 Bft)
30.09.2010 19:30 11,8 C 82 % 1014,3 hPa 0,0 mm 1,6 km/h (1 Bft) O-SO 112 0 min 0 UV-I 0 W/m 9,7 km/h (2 Bft)
30.09.2010 19:40 11,8 C 83 % 1014,2 hPa 0,0 mm 1,6 km/h (1 Bft) O-SO 112 0 min 0 UV-I 0 W/m 11,3 km/h (2 Bft)
30.09.2010 19:50 11,8 C 83 % 1014,2 hPa 0,0 mm 1,6 km/h (1 Bft) SO 135 0 min 0 UV-I 0 W/m 9,7 km/h (2 Bft)
30.09.2010 20:00 11,7 C 84 % 1014,2 hPa 0,0 mm 1,6 km/h (1 Bft) O-SO 112 0 min 0 UV-I 0 W/m 4,8 km/h (1 Bft)
30.09.2010 20:10 11,6 C 84 % 1014,2 hPa 0,0 mm 1,6 km/h (1 Bft) O-SO 112 0 min 0 UV-I 0 W/m 6,4 km/h (2 Bft)
30.09.2010 20:20 11,6 C 84 % 1014,3 hPa 0,0 mm 1,6 km/h (1 Bft) O-SO 112 0 min 0 UV-I 0 W/m 6,4 km/h (2 Bft)
30.09.2010 20:30 11,4 C 85 % 1014,2 hPa 0,0 mm 1,6 km/h (1 Bft) O 90 0 min 0 UV-I 0 W/m 6,4 km/h (2 Bft)
30.09.2010 20:40 11,4 C 85 % 1014,0 hPa 0,0 mm 1,6 km/h (1 Bft) O 90 0 min 0 UV-I 0 W/m 8,0 km/h (2 Bft)
30.09.2010 21:00 11,4 C 85 % 1014,1 hPa 0,0 mm 1,9 km/h (1 Bft) SO 132 0 min 0 UV-I 0 W/m 8,0 km/h (2 Bft)
30.09.2010 21:10 11,4 C 84 % 1014,1 hPa 0,0 mm 2,4 km/h (1 Bft) O-SO 103 0 min 0 UV-I 0 W/m 9,7 km/h (2 Bft)
30.09.2010 21:20 11,4 C 85 % 1014,1 hPa 0,0 mm 1,2 km/h (1 Bft) O-NO 61 0 min 0 UV-I 0 W/m 6,4 km/h (2 Bft)
30.09.2010 21:30 11,3 C 85 % 1014,1 hPa 0,0 mm 0,5 km/h (0 Bft) O-NO 68 0 min 0 UV-I 0 W/m 4,8 km/h (1 Bft)
30.09.2010 21:40 11,3 C 85 % 1014,1 hPa 0,0 mm 0,8 km/h (0 Bft) O-SO 103 0 min 0 UV-I 0 W/m 4,8 km/h (1 Bft)
30.09.2010 21:50 11,3 C 85 % 1014,0 hPa 0,0 mm 1,5 km/h (1 Bft) O-NO 76 0 min 0 UV-I 0 W/m 6,4 km/h (2 Bft)
30.09.2010 22:00 11,3 C 85 % 1013,9 hPa 0,0 mm 1,2 km/h (1 Bft) O-SO 122 0 min 0 UV-I 0 W/m 6,4 km/h (2 Bft)
30.09.2010 22:10 11,4 C 85 % 1013,9 hPa 0,0 mm 2,2 km/h (1 Bft) O-SO 111 0 min 0 UV-I 0 W/m 9,7 km/h (2 Bft)
30.09.2010 22:20 11,4 C 85 % 1014,0 hPa 0,0 mm 2,4 km/h (1 Bft) O 90 0 min 0 UV-I 0 W/m 9,7 km/h (2 Bft)
30.09.2010 22:30 11,4 C 85 % 1014,0 hPa 0,0 mm 1,3 km/h (1 Bft) O-SO 109 0 min 0 UV-I 0 W/m 9,7 km/h (2 Bft)
30.09.2010 22:40 11,4 C 85 % 1013,9 hPa 0,0 mm 2,8 km/h (1 Bft) O-SO 113 0 min 0 UV-I 0 W/m 8,0 km/h (2 Bft)
30.09.2010 22:50 11,5 C 84 % 1013,7 hPa 0,0 mm 1,6 km/h (1 Bft) O 79 0 min 0 UV-I 0 W/m 11,3 km/h (2 Bft)
30.09.2010 23:00 11,5 C 84 % 1013,9 hPa 0,0 mm 2,4 km/h (1 Bft) O-SO 108 0 min 0 UV-I 0 W/m 9,7 km/h (2 Bft)
30.09.2010 23:10 11,5 C 84 % 1013,7 hPa 0,0 mm 2,0 km/h (1 Bft) O-SO 107 0 min 0 UV-I 0 W/m 9,7 km/h (2 Bft)
30.09.2010 23:20 11,4 C 85 % 1013,6 hPa 0,0 mm 1,3 km/h (1 Bft) O 101 0 min 0 UV-I 0 W/m 9,7 km/h (2 Bft)
30.09.2010 23:30 11,4 C 85 % 1013,6 hPa 0,0 mm 1,3 km/h (1 Bft) O-NO 74 0 min 0 UV-I 0 W/m 8,0 km/h (2 Bft)
30.09.2010 23:40 11,4 C 85 % 1013,6 hPa 0,0 mm 1,5 km/h (1 Bft) O-SO 105 0 min 0 UV-I 0 W/m 6,4 km/h (2 Bft)
30.09.2010 23:50 11,4 C 85 % 1013,5 hPa 0,0 mm 2,7 km/h (1 Bft) S-SO 155 0 min 0 UV-I 0 W/m 8,0 km/h (2 Bft)
_ Min-Zeit 03:50 13:00 23:50 - 00:00 - - - - - 00:10
Minimum _ 5,1 C 75 % 1013,5 hPa - 0,0 km/h (0 Bft) - - - - - 0,0 km/h (0 Bft)
_ Max-Zeit 13:30 08:00 00:00 07:40 12:00 - - 07:40 12:50 12:10 12:20
Maximum _ 14,3 C 93 % 1019,1 hPa 0,3 mm 8,0 km/h
O-SO (2 Bft)
- - 10 min 3 UV-I 527 W/m 22,5 km/h
O-SO (4 Bft)
Durchschnitt _ 9,5 C 85 % 1016,1 hPa #0,3 mm 2,8 km/h (1 Bft) O-SO - #6:10 h 2 UV-I 203 W/m 10,2 km/h (2 Bft)